Time,TemperatureF,DewpointF,PressureIn,WindDirection,WindDirectionDegrees,WindSpeedMPH,WindSpeedGustMPH,Humidity,HourlyPrecipIn,Conditions,Clouds,dailyrainin,SoftwareType,DateUTC
2013-09-01 00:03:00,59.0,0.0,29.94,SE,139,0.0,0.0,0,0.00,,CLR,0.00,VWS V13.01,2013-09-01 07:03:00,
2013-09-01 00:09:00,59.0,0.0,29.94,SE,140,0.0,0.0,0,0.00,,CLR,0.00,VWS V13.01,2013-09-01 07:09:00,
2013-09-01 00:14:00,58.9,0.0,29.94,SE,139,0.0,0.0,0,0.00,,CLR,0.00,VWS V13.01,2013-09-01 07:14:00,
2013-09-01 00:19:00,58.9,0.0,29.94,SE,140,0.0,0.0,0,0.00,,CLR,0.00,VWS V13.01,2013-09-01 07:19:00,
2013-09-01 00:24:00,59.0,0.0,29.94,SE,139,0.0,0.0,0,0.00,,CLR,0.00,VWS V13.01,2013-09-01 07:24:00,
2013-09-01 00:29:00,59.0,0.0,29.94,SE,140,0.0,0.0,0,0.00,,CLR,0.00,VWS V13.01,2013-09-01 07:29:00,
2013-09-01 00:34:00,59.0,0.0,29.94,SE,140,0.0,0.0,0,0.00,,CLR,0.00,VWS V13.01,2013-09-01 07:34:00,
2013-09-01 00:39:00,59.0,0.0,29.94,South,169,1.0,2.0,0,0.00,,CLR,0.00,VWS V13.01,2013-09-01 07:39:00,
2013-09-01 00:44:00,58.9,0.0,29.94,South,169,0.0,0.0,0,0.00,,CLR,0.00,VWS V13.01,2013-09-01 07:44:00,
2013-09-01 00:49:00,58.9,0.0,29.94,South,169,0.0,0.0,0,0.00,,CLR,0.00,VWS V13.01,2013-09-01 07:49:00,
2013-09-01 00:54:00,59.0,0.0,29.94,South,169,0.0,0.0,0,0.00,,CLR,0.00,VWS V13.01,2013-09-01 07:54:00,
2013-09-01 00:59:00,59.0,0.0,29.94,South,169,0.0,0.0,0,0.00,,CLR,0.00,VWS V13.01,2013-09-01 07:59:00,
2013-09-01 01:04:00,59.0,0.0,29.94,South,169,0.0,0.0,0,0.00,,CLR,0.00,VWS V13.01,2013-09-01 08:04:00,
2013-09-01 01:09:00,59.0,0.0,29.94,South,169,0.0,0.0,0,0.00,,CLR,0.00,VWS V13.01,2013-09-01 08:09:00,
2013-09-01 01:14:00,59.0,0.0,29.94,South,169,0.0,0.0,0,0.00,,CLR,0.00,VWS V13.01,2013-09-01 08:14:00,
2013-09-01 01:19:00,59.0,0.0,29.94,South,169,0.0,0.0,0,0.00,,CLR,0.00,VWS V13.01,2013-09-01 08:19:00,
2013-09-01 01:24:00,58.9,0.0,29.94,South,180,1.0,2.0,0,0.00,,CLR,0.00,VWS V13.01,2013-09-01 08:24:00,
2013-09-01 01:30:00,58.7,0.0,29.94,SSE,168,2.0,2.0,0,0.00,,CLR,0.00,VWS V13.01,2013-09-01 08:30:00,
2013-09-01 01:35:00,58.6,0.0,29.93,SSE,168,0.0,3.0,0,0.00,,CLR,0.00,VWS V13.01,2013-09-01 08:35:00,
2013-09-01 01:40:00,58.6,0.0,29.94,SSE,168,0.0,3.0,0,0.00,,CLR,0.00,VWS V13.01,2013-09-01 08:40:00,
2013-09-01 01:45:00,58.6,0.0,29.94,SSE,168,0.0,0.0,0,0.00,,CLR,0.00,VWS V13.01,2013-09-01 08:45:00,
2013-09-01 01:50:00,58.6,0.0,29.93,SSE,168,0.0,0.0,0,0.00,,CLR,0.00,VWS V13.01,2013-09-01 08:50:00,
2013-09-01 01:55:00,58.6,0.0,29.93,SSE,168,0.0,0.0,0,0.00,,CLR,0.00,VWS V13.01,2013-09-01 08:55:00,
2013-09-01 02:00:00,58.5,0.0,29.93,SSE,168,0.0,0.0,0,0.00,,CLR,0.00,VWS V13.01,2013-09-01 09:00:00,
2013-09-01 02:05:00,58.4,0.0,29.93,SSE,168,0.0,3.0,0,0.00,,CLR,0.00,VWS V13.01,2013-09-01 09:05:00,
2013-09-01 02:10:00,58.4,0.0,29.93,SSE,168,0.0,3.0,0,0.00,,CLR,0.00,VWS V13.01,2013-09-01 09:10:00,
2013-09-01 02:15:00,58.4,0.0,29.93,SSE,168,0.0,0.0,0,0.00,,CLR,0.00,VWS V13.01,2013-09-01 09:15:00,
2013-09-01 02:20:00,58.4,0.0,29.93,SSE,168,2.0,2.0,0,0.00,,CLR,0.00,VWS V13.01,2013-09-01 09:20:00,
2013-09-01 02:25:00,58.2,0.0,29.93,SSE,168,0.0,2.0,0,0.00,,CLR,0.00,VWS V13.01,2013-09-01 09:25:00,
2013-09-01 02:30:00,58.3,0.0,29.93,SSE,168,0.0,2.0,0,0.00,,CLR,0.00,VWS V13.01,2013-09-01 09:30:00,
2013-09-01 02:35:00,58.2,0.0,29.93,SSE,168,0.0,2.0,0,0.00,,CLR,0.00,VWS V13.01,2013-09-01 09:35:00,
2013-09-01 02:40:00,58.2,0.0,29.93,SSE,168,0.0,2.0,0,0.00,,CLR,0.00,VWS V13.01,2013-09-01 09:40:00,
2013-09-01 02:45:00,58.2,0.0,29.93,SSE,168,0.0,0.0,0,0.00,,CLR,0.00,VWS V13.01,2013-09-01 09:45:00,
2013-09-01 02:50:00,58.2,0.0,29.93,SSW,200,2.0,3.0,0,0.00,,CLR,0.00,VWS V13.01,2013-09-01 09:50:00,
2013-09-01 02:56:00,58.1,0.0,29.93,South,189,0.0,4.0,0,0.00,,CLR,0.00,VWS V13.01,2013-09-01 09:56:00,
2013-09-01 03:01:00,58.0,0.0,29.93,South,189,0.0,0.0,0,0.00,,CLR,0.00,VWS V13.01,2013-09-01 10:01:00,
2013-09-01 03:06:00,58.0,0.0,29.93,South,188,0.0,1.0,0,0.00,,CLR,0.00,VWS V13.01,2013-09-01 10:06:00,
2013-09-01 03:11:00,57.9,0.0,29.93,SE,131,0.0,2.0,0,0.00,,CLR,0.00,VWS V13.01,2013-09-01 10:11:00,
2013-09-01 03:16:00,57.9,0.0,29.93,SE,131,0.0,0.0,0,0.00,,CLR,0.00,VWS V13.01,2013-09-01 10:16:00,
2013-09-01 03:21:00,58.0,0.0,29.93,SE,131,0.0,0.0,0,0.00,,CLR,0.00,VWS V13.01,2013-09-01 10:21:00,
2013-09-01 03:26:00,58.0,0.0,29.93,SE,131,0.0,1.0,0,0.00,,CLR,0.00,VWS V13.01,2013-09-01 10:26:00,
2013-09-01 03:31:00,57.9,0.0,29.93,SE,131,0.0,0.0,0,0.00,,CLR,0.00,VWS V13.01,2013-09-01 10:31:00,
2013-09-01 03:36:00,57.8,0.0,29.93,SE,131,0.0,0.0,0,0.00,,CLR,0.00,VWS V13.01,2013-09-01 10:36:00,
2013-09-01 03:41:00,57.7,0.0,29.93,SE,131,0.0,1.0,0,0.00,,CLR,0.00,VWS V13.01,2013-09-01 10:41:00,
2013-09-01 03:46:00,57.7,0.0,29.93,SE,131,0.0,1.0,0,0.00,,CLR,0.00,VWS V13.01,2013-09-01 10:46:00,
2013-09-01 03:51:00,57.6,0.0,29.92,SE,131,0.0,1.0,0,0.00,,CLR,0.00,VWS V13.01,2013-09-01 10:51:00,
2013-09-01 03:56:00,57.5,0.0,29.92,SE,131,0.0,1.0,0,0.00,,CLR,0.00,VWS V13.01,2013-09-01 10:56:00,
2013-09-01 04:01:00,57.5,0.0,29.92,SE,131,0.0,0.0,0,0.00,,CLR,0.00,VWS V13.01,2013-09-01 11:01:00,
2013-09-01 04:06:00,57.6,0.0,29.92,SE,131,0.0,0.0,0,0.00,,CLR,0.00,VWS V13.01,2013-09-01 11:06:00,
2013-09-01 04:12:00,57.6,0.0,29.92,SE,131,0.0,0.0,0,0.00,,CLR,0.00,VWS V13.01,2013-09-01 11:12:00,
2013-09-01 04:17:00,57.5,0.0,29.92,SE,131,0.0,1.0,0,0.00,,CLR,0.00,VWS V13.01,2013-09-01 11:17:00,
2013-09-01 04:22:00,57.4,0.0,29.92,SE,131,1.0,2.0,0,0.00,,CLR,0.00,VWS V13.01,2013-09-01 11:22:00,
2013-09-01 04:27:00,57.4,0.0,29.92,SE,136,1.0,2.0,0,0.00,,CLR,0.00,VWS V13.01,2013-09-01 11:27:00,
2013-09-01 04:32:00,57.4,0.0,29.92,South,182,2.0,2.0,0,0.00,,CLR,0.00,VWS V13.01,2013-09-01 11:32:00,
2013-09-01 04:37:00,57.3,0.0,29.92,SSW,203,0.0,3.0,0,0.00,,CLR,0.00,VWS V13.01,2013-09-01 11:37:00,
2013-09-01 04:42:00,57.2,0.0,29.92,SSW,203,0.0,3.0,0,0.00,,CLR,0.00,VWS V13.01,2013-09-01 11:42:00,
2013-09-01 04:47:00,57.2,0.0,29.92,SSW,203,0.0,1.0,0,0.00,,CLR,0.00,VWS V13.01,2013-09-01 11:47:00,
2013-09-01 04:52:00,57.1,0.0,29.92,SSW,203,0.0,1.0,0,0.00,,CLR,0.00,VWS V13.01,2013-09-01 11:52:00,
2013-09-01 04:57:00,57.2,0.0,29.92,SSW,203,0.0,1.0,0,0.00,,CLR,0.00,VWS V13.01,2013-09-01 11:57:00,
2013-09-01 05:02:00,57.1,0.0,29.92,SE,137,0.0,2.0,0,0.00,,CLR,0.00,VWS V13.01,2013-09-01 12:02:00,
2013-09-01 05:07:00,57.1,0.0,29.92,East,82,2.0,2.0,0,0.00,,CLR,0.00,VWS V13.01,2013-09-01 12:07:00,
2013-09-01 05:12:00,57.0,0.0,29.92,NE,36,2.0,3.0,0,0.00,,CLR,0.00,VWS V13.01,2013-09-01 12:12:00,
2013-09-01 05:17:00,56.9,0.0,29.92,NNE,30,0.0,2.0,0,0.00,,CLR,0.00,VWS V13.01,2013-09-01 12:17:00,
2013-09-01 05:22:00,56.9,0.0,29.92,NNE,30,0.0,2.0,0,0.00,,CLR,0.00,VWS V13.01,2013-09-01 12:22:00,
2013-09-01 05:28:00,56.9,0.0,29.92,NNE,30,0.0,2.0,0,0.00,,CLR,0.00,VWS V13.01,2013-09-01 12:28:00,
2013-09-01 05:33:00,56.9,0.0,29.92,NNE,30,0.0,1.0,0,0.00,,CLR,0.00,VWS V13.01,2013-09-01 12:33:00,
2013-09-01 05:38:00,56.8,0.0,29.92,NE,35,1.0,2.0,0,0.00,,CLR,0.00,VWS V13.01,2013-09-01 12:38:00,
2013-09-01 05:43:00,56.8,0.0,29.92,NE,36,0.0,2.0,0,0.00,,CLR,0.00,VWS V13.01,2013-09-01 12:43:00,
2013-09-01 05:48:00,56.8,0.0,29.92,NE,36,0.0,1.0,0,0.00,,CLR,0.00,VWS V13.01,2013-09-01 12:48:00,
2013-09-01 05:53:00,56.7,0.0,29.92,NE,35,0.0,1.0,0,0.00,,CLR,0.00,VWS V13.01,2013-09-01 12:53:00,
2013-09-01 05:58:00,56.7,0.0,29.92,NE,36,0.0,1.0,0,0.00,,CLR,0.00,VWS V13.01,2013-09-01 12:58:00,
2013-09-01 06:03:00,56.7,0.0,29.92,NE,36,0.0,0.0,0,0.00,,CLR,0.00,VWS V13.01,2013-09-01 13:03:00,
2013-09-01 06:08:00,56.7,0.0,29.92,NE,36,0.0,0.0,0,0.00,,CLR,0.00,VWS V13.01,2013-09-01 13:08:00,
2013-09-01 06:13:00,56.6,0.0,29.92,NW,321,0.0,1.0,0,0.00,,CLR,0.00,VWS V13.01,2013-09-01 13:13:00,
2013-09-01 06:18:00,56.6,0.0,29.92,NW,321,0.0,0.0,0,0.00,,CLR,0.00,VWS V13.01,2013-09-01 13:18:00,
2013-09-01 06:23:00,56.6,0.0,29.92,NW,318,0.0,1.0,0,0.00,,CLR,0.00,VWS V13.01,2013-09-01 13:23:00,
2013-09-01 06:28:00,56.6,0.0,29.92,NW,318,0.0,1.0,0,0.00,,CLR,0.00,VWS V13.01,2013-09-01 13:28:00,
2013-09-01 06:33:00,56.5,0.0,29.92,NW,317,0.0,1.0,0,0.00,,CLR,0.00,VWS V13.01,2013-09-01 13:33:00,
2013-09-01 06:38:00,56.4,0.0,29.92,NW,317,0.0,1.0,0,0.00,,CLR,0.00,VWS V13.01,2013-09-01 13:38:00,
2013-09-01 06:44:00,56.4,0.0,29.92,NW,315,0.0,0.0,0,0.00,,CLR,0.00,VWS V13.01,2013-09-01 13:44:00,
2013-09-01 06:49:00,56.4,0.0,29.92,NW,315,0.0,0.0,0,0.00,,CLR,0.00,VWS V13.01,2013-09-01 13:49:00,
2013-09-01 06:54:00,56.4,0.0,29.92,NW,315,0.0,0.0,0,0.00,,CLR,0.00,VWS V13.01,2013-09-01 13:54:00,
2013-09-01 06:59:00,56.4,0.0,29.92,NW,315,0.0,0.0,0,0.00,,CLR,0.00,VWS V13.01,2013-09-01 13:59:00,
2013-09-01 07:04:00,56.4,0.0,29.92,NW,315,0.0,0.0,0,0.00,,CLR,0.00,VWS V13.01,2013-09-01 14:04:00,
2013-09-01 07:09:00,56.4,0.0,29.92,NW,315,0.0,0.0,0,0.00,,CLR,0.00,VWS V13.01,2013-09-01 14:09:00,
2013-09-01 07:14:00,56.4,0.0,29.92,NW,315,0.0,1.0,0,0.00,,CLR,0.00,VWS V13.01,2013-09-01 14:14:00,
2013-09-01 07:19:00,56.4,0.0,29.92,NW,315,0.0,1.0,0,0.00,,CLR,0.00,VWS V13.01,2013-09-01 14:19:00,
2013-09-01 07:24:00,56.5,0.0,29.92,NW,315,0.0,1.0,0,0.00,,CLR,0.00,VWS V13.01,2013-09-01 14:24:00,
2013-09-01 07:29:00,56.5,0.0,29.92,NNW,327,2.0,2.0,0,0.00,,CLR,0.00,VWS V13.01,2013-09-01 14:29:00,
2013-09-01 07:34:00,56.5,0.0,29.93,NNW,327,0.0,2.0,0,0.00,,CLR,0.00,VWS V13.01,2013-09-01 14:34:00,
2013-09-01 07:39:00,56.4,0.0,29.93,North,360,0.0,2.0,0,0.00,,CLR,0.00,VWS V13.01,2013-09-01 14:39:00,
2013-09-01 07:44:00,56.4,0.0,29.93,North,360,0.0,1.0,0,0.00,,CLR,0.00,VWS V13.01,2013-09-01 14:44:00,
2013-09-01 07:49:00,56.5,0.0,29.93,North,360,0.0,1.0,0,0.00,,CLR,0.00,VWS V13.01,2013-09-01 14:49:00,
2013-09-01 07:54:00,56.6,0.0,29.93,North,360,0.0,1.0,0,0.00,,CLR,0.00,VWS V13.01,2013-09-01 14:54:00,
2013-09-01 08:00:00,56.7,0.0,29.93,North,360,1.0,2.0,0,0.00,,CLR,0.00,VWS V13.01,2013-09-01 15:00:00,
2013-09-01 08:05:00,56.6,0.0,29.92,NNE,18,0.0,3.0,0,0.00,,CLR,0.00,VWS V13.01,2013-09-01 15:05:00,
2013-09-01 08:10:00,56.6,0.0,29.92,NNE,18,0.0,3.0,0,0.00,,CLR,0.00,VWS V13.01,2013-09-01 15:10:00,
2013-09-01 08:15:00,56.6,0.0,29.92,NNE,18,0.0,0.0,0,0.00,,CLR,0.00,VWS V13.01,2013-09-01 15:15:00,
2013-09-01 08:20:00,56.7,0.0,29.92,NNE,18,0.0,0.0,0,0.00,,CLR,0.00,VWS V13.01,2013-09-01 15:20:00,
2013-09-01 08:25:00,56.8,0.0,29.92,NNE,18,0.0,1.0,0,0.00,,CLR,0.00,VWS V13.01,2013-09-01 15:25:00,
2013-09-01 08:30:00,56.9,0.0,29.92,NNE,18,0.0,0.0,0,0.00,,CLR,0.00,VWS V13.01,2013-09-01 15:30:00,
2013-09-01 08:35:00,57.0,0.0,29.92,NNE,18,0.0,0.0,0,0.00,,CLR,0.00,VWS V13.01,2013-09-01 15:35:00,
2013-09-01 08:40:00,57.2,0.0,29.92,NNE,18,0.0,0.0,0,0.00,,CLR,0.00,VWS V13.01,2013-09-01 15:40:00,
2013-09-01 08:45:00,57.3,0.0,29.92,NNE,18,0.0,0.0,0,0.00,,CLR,0.00,VWS V13.01,2013-09-01 15:45:00,
2013-09-01 08:50:00,57.2,0.0,29.92,NNE,18,0.0,0.0,0,0.00,,CLR,0.00,VWS V13.01,2013-09-01 15:50:00,
2013-09-01 08:55:00,57.0,0.0,29.92,NNE,18,0.0,0.0,0,0.00,,CLR,0.00,VWS V13.01,2013-09-01 15:55:00,
2013-09-01 09:00:00,56.9,0.0,29.92,NNE,18,0.0,0.0,0,0.00,,CLR,0.00,VWS V13.01,2013-09-01 16:00:00,
2013-09-01 09:05:00,56.8,0.0,29.92,NNE,18,0.0,0.0,0,0.00,,CLR,0.00,VWS V13.01,2013-09-01 16:05:00,
2013-09-01 09:10:00,56.8,0.0,29.91,NNE,18,0.0,0.0,0,0.00,,CLR,0.00,VWS V13.01,2013-09-01 16:10:00,
2013-09-01 09:16:00,56.8,0.0,29.92,NNE,18,0.0,0.0,0,0.00,,CLR,0.00,VWS V13.01,2013-09-01 16:16:00,
2013-09-01 09:21:00,57.3,0.0,29.92,NNE,18,0.0,0.0,0,0.00,,CLR,0.00,VWS V13.01,2013-09-01 16:21:00,
2013-09-01 09:26:00,58.0,0.0,29.92,NNE,18,0.0,0.0,0,0.00,,CLR,0.00,VWS V13.01,2013-09-01 16:26:00,
2013-09-01 09:31:00,58.7,0.0,29.91,NNE,18,0.0,0.0,0,0.00,,CLR,0.00,VWS V13.01,2013-09-01 16:31:00,
2013-09-01 09:36:00,59.2,0.0,29.91,NNE,18,0.0,0.0,0,0.00,,CLR,0.00,VWS V13.01,2013-09-01 16:36:00,
2013-09-01 09:41:00,59.8,0.0,29.91,NNE,18,0.0,0.0,0,0.00,,CLR,0.00,VWS V13.01,2013-09-01 16:41:00,
2013-09-01 09:46:00,60.4,0.0,29.92,NNE,18,0.0,0.0,0,0.00,,CLR,0.00,VWS V13.01,2013-09-01 16:46:00,
2013-09-01 09:51:00,61.1,0.0,29.91,NNE,18,0.0,0.0,0,0.00,,CLR,0.00,VWS V13.01,2013-09-01 16:51:00,
2013-09-01 09:56:00,61.7,0.0,29.91,NNE,18,0.0,0.0,0,0.00,,CLR,0.00,VWS V13.01,2013-09-01 16:56:00,
2013-09-01 10:01:00,62.3,0.0,29.91,NNE,18,0.0,0.0,0,0.00,,CLR,0.00,VWS V13.01,2013-09-01 17:01:00,
2013-09-01 10:06:00,62.9,-39.2,29.91,NNE,18,0.0,0.0,1,0.00,,CLR,0.00,VWS V13.01,2013-09-01 17:06:00,
2013-09-01 10:11:00,63.2,0.0,29.91,NNE,18,0.0,0.0,0,0.00,,CLR,0.00,VWS V13.01,2013-09-01 17:11:00,
2013-09-01 10:16:00,63.5,-38.9,29.91,NNE,18,0.0,0.0,1,0.00,,CLR,0.00,VWS V13.01,2013-09-01 17:16:00,
2013-09-01 10:21:00,63.9,10.3,29.90,NNE,18,0.0,0.0,12,0.00,,CLR,0.00,VWS V13.01,2013-09-01 17:21:00,
2013-09-01 10:26:00,64.4,0.0,29.90,NNE,18,0.0,0.0,0,0.00,,CLR,0.00,VWS V13.01,2013-09-01 17:26:00,
2013-09-01 10:32:00,64.9,0.0,29.90,NNE,18,0.0,0.0,0,0.00,,CLR,0.00,VWS V13.01,2013-09-01 17:32:00,
2013-09-01 10:37:00,65.3,18.0,29.90,NNE,18,0.0,0.0,16,0.00,,CLR,0.00,VWS V13.01,2013-09-01 17:37:00,
2013-09-01 10:42:00,65.8,21.1,29.89,NNE,18,0.0,0.0,18,0.00,,CLR,0.00,VWS V13.01,2013-09-01 17:42:00,
2013-09-01 10:47:00,66.4,0.5,29.89,NNE,18,0.0,0.0,7,0.00,,CLR,0.00,VWS V13.01,2013-09-01 17:47:00,
2013-09-01 10:52:00,66.8,-24.3,29.89,NNE,18,0.0,0.0,2,0.00,,CLR,0.00,VWS V13.01,2013-09-01 17:52:00,
2013-09-01 10:57:00,67.4,9.0,29.89,NNE,18,0.0,0.0,10,0.00,,CLR,0.00,VWS V13.01,2013-09-01 17:57:00,
2013-09-01 11:02:00,68.3,17.3,29.89,NNE,18,0.0,0.0,14,0.00,,CLR,0.00,VWS V13.01,2013-09-01 18:02:00,
2013-09-01 11:07:00,69.2,43.9,29.89,SSE,165,1.0,3.0,40,0.00,,CLR,0.00,VWS V13.01,2013-09-01 18:07:00,
2013-09-01 11:12:00,70.2,53.8,29.88,WSW,240,0.0,3.0,56,0.00,,CLR,0.00,VWS V13.01,2013-09-01 18:12:00,
2013-09-01 11:17:00,71.3,55.3,29.88,SSW,198,0.0,3.0,57,0.00,,CLR,0.00,VWS V13.01,2013-09-01 18:17:00,
2013-09-01 11:22:00,72.0,56.4,29.89,WSW,240,0.0,4.0,58,0.00,,CLR,0.00,VWS V13.01,2013-09-01 18:22:00,
2013-09-01 11:27:00,72.8,57.7,29.88,SW,226,1.0,4.0,59,0.00,,CLR,0.00,VWS V13.01,2013-09-01 18:27:00,
2013-09-01 11:32:00,73.6,57.4,29.88,SSW,208,0.0,3.0,57,0.00,,CLR,0.00,VWS V13.01,2013-09-01 18:32:00,
2013-09-01 11:37:00,74.0,57.3,29.88,SSE,161,0.0,4.0,56,0.00,,CLR,0.00,VWS V13.01,2013-09-01 18:37:00,
2013-09-01 11:43:00,74.4,57.2,29.88,SSW,202,1.0,4.0,55,0.00,,FEW080,0.00,VWS V13.01,2013-09-01 18:43:00,
2013-09-01 11:48:00,74.5,58.3,29.88,SSW,213,1.0,4.0,57,0.00,,FEW080,0.00,VWS V13.01,2013-09-01 18:48:00,
2013-09-01 11:53:00,74.7,57.5,29.88,WSW,238,3.0,5.0,55,0.00,,FEW080,0.00,VWS V13.01,2013-09-01 18:53:00,
2013-09-01 11:58:00,74.9,58.7,29.87,NNW,336,2.0,5.0,57,0.00,,FEW080,0.00,VWS V13.01,2013-09-01 18:58:00,
2013-09-01 12:03:00,75.0,59.7,29.87,ENE,71,1.0,3.0,59,0.00,,FEW080,0.00,VWS V13.01,2013-09-01 19:03:00,
2013-09-01 12:08:00,75.1,59.3,29.87,ENE,71,0.0,3.0,58,0.00,,FEW080,0.00,VWS V13.01,2013-09-01 19:08:00,
2013-09-01 12:13:00,75.7,59.4,29.87,ENE,64,1.0,3.0,57,0.00,,FEW080,0.00,VWS V13.01,2013-09-01 19:13:00,
2013-09-01 12:18:00,75.5,58.2,29.87,NE,48,4.0,4.0,55,0.00,,FEW080,0.00,VWS V13.01,2013-09-01 19:18:00,
2013-09-01 12:23:00,75.1,58.3,29.87,NE,46,0.0,5.0,56,0.00,,FEW080,0.00,VWS V13.01,2013-09-01 19:23:00,
2013-09-01 12:28:00,75.3,58.0,29.87,ESE,121,0.0,5.0,55,0.00,,FEW080,0.00,VWS V13.01,2013-09-01 19:28:00,
2013-09-01 12:33:00,76.0,58.2,29.87,SE,131,3.0,8.0,54,0.00,,FEW080,0.00,VWS V13.01,2013-09-01 19:33:00,
2013-09-01 12:38:00,76.1,58.8,29.87,SSW,213,4.0,8.0,55,0.00,,FEW080,0.00,VWS V13.01,2013-09-01 19:38:00,
2013-09-01 12:43:00,76.5,60.2,29.87,SE,132,1.0,8.0,57,0.00,,FEW050,0.00,VWS V13.01,2013-09-01 19:43:00,
2013-09-01 12:48:00,76.5,60.2,29.86,East,96,1.0,3.0,57,0.00,,FEW050,0.00,VWS V13.01,2013-09-01 19:48:00,
2013-09-01 12:53:00,76.4,57.0,29.87,SSW,192,6.0,12.0,51,0.00,,FEW050,0.00,VWS V13.01,2013-09-01 19:53:00,
2013-09-01 12:59:00,76.1,56.7,29.86,East,93,2.0,2.0,51,0.00,,FEW050,0.00,VWS V13.01,2013-09-01 19:59:00,
2013-09-01 13:04:00,76.4,58.5,29.87,SSW,192,1.0,9.0,54,0.00,,FEW050,0.00,VWS V13.01,2013-09-01 20:04:00,
2013-09-01 13:09:00,77.2,58.2,29.86,South,173,1.0,9.0,52,0.00,,FEW050,0.00,VWS V13.01,2013-09-01 20:09:00,
2013-09-01 13:14:00,77.4,57.3,29.86,SSE,159,4.0,6.0,50,0.00,,FEW050,0.00,VWS V13.01,2013-09-01 20:14:00,
2013-09-01 13:19:00,77.5,57.4,29.86,SE,144,3.0,6.0,50,0.00,,FEW050,0.00,VWS V13.01,2013-09-01 20:19:00,
2013-09-01 13:24:00,77.3,57.2,29.86,South,191,6.0,12.0,50,0.00,,FEW050,0.00,VWS V13.01,2013-09-01 20:24:00,
2013-09-01 13:29:00,76.8,56.8,29.86,ENE,61,0.0,3.0,50,0.00,,FEW050,0.00,VWS V13.01,2013-09-01 20:29:00,
2013-09-01 13:34:00,77.1,58.7,29.86,SE,140,3.0,7.0,53,0.00,,FEW050,0.00,VWS V13.01,2013-09-01 20:34:00,
2013-09-01 13:39:00,77.3,58.3,29.86,SE,144,4.0,11.0,52,0.00,,FEW045,0.00,VWS V13.01,2013-09-01 20:39:00,
2013-09-01 13:44:00,77.1,58.7,29.86,SSE,153,2.0,6.0,53,0.00,,FEW045,0.00,VWS V13.01,2013-09-01 20:44:00,
2013-09-01 13:49:00,77.0,60.1,29.85,SSW,194,3.0,10.0,56,0.00,,FEW045,0.00,VWS V13.01,2013-09-01 20:49:00,
2013-09-01 13:54:00,77.4,57.9,29.85,WNW,288,4.0,10.0,51,0.00,,FEW045,0.00,VWS V13.01,2013-09-01 20:54:00,
2013-09-01 13:59:00,78.0,59.5,29.85,South,181,2.0,6.0,53,0.00,,FEW045,0.00,VWS V13.01,2013-09-01 20:59:00,
2013-09-01 14:05:00,78.3,59.8,29.85,East,98,2.0,6.0,53,0.00,,FEW045,0.00,VWS V13.01,2013-09-01 21:05:00,
2013-09-01 14:10:00,78.0,56.7,29.85,SE,140,3.0,11.0,48,0.00,,FEW045,0.00,VWS V13.01,2013-09-01 21:10:00,
2013-09-01 14:15:00,77.4,57.3,29.85,ENE,63,3.0,8.0,50,0.00,,FEW045,0.00,VWS V13.01,2013-09-01 21:15:00,
2013-09-01 14:20:00,77.5,58.5,29.84,SE,137,3.0,8.0,52,0.00,,FEW045,0.00,VWS V13.01,2013-09-01 21:20:00,
2013-09-01 14:25:00,77.9,58.9,29.84,South,174,3.0,8.0,52,0.00,,FEW045,0.00,VWS V13.01,2013-09-01 21:25:00,
2013-09-01 14:30:00,78.2,58.1,29.85,SW,221,5.0,11.0,50,0.00,,FEW045,0.00,VWS V13.01,2013-09-01 21:30:00,
2013-09-01 14:35:00,78.2,59.7,29.84,South,186,5.0,12.0,53,0.00,,FEW045,0.00,VWS V13.01,2013-09-01 21:35:00,
2013-09-01 14:40:00,78.0,59.0,29.84,SSW,192,6.0,12.0,52,0.00,,FEW045,0.00,VWS V13.01,2013-09-01 21:40:00,
2013-09-01 14:45:00,77.4,57.9,29.84,NE,44,1.0,6.0,51,0.00,,FEW045,0.00,VWS V13.01,2013-09-01 21:45:00,
2013-09-01 14:50:00,77.2,57.7,29.84,SSE,148,5.0,10.0,51,0.00,,FEW045,0.00,VWS V13.01,2013-09-01 21:50:00,
2013-09-01 14:55:00,77.3,57.8,29.84,ESE,113,4.0,10.0,51,0.00,,FEW045,0.00,VWS V13.01,2013-09-01 21:55:00,
2013-09-01 15:00:00,77.4,57.9,29.84,SSE,158,8.0,11.0,51,0.00,,FEW045,0.00,VWS V13.01,2013-09-01 22:00:00,
2013-09-01 15:05:00,77.1,58.1,29.84,East,88,3.0,13.0,52,0.00,,FEW045,0.00,VWS V13.01,2013-09-01 22:05:00,
2013-09-01 15:10:00,77.2,57.7,29.84,SE,140,7.0,13.0,51,0.00,,FEW045,0.00,VWS V13.01,2013-09-01 22:10:00,
2013-09-01 15:15:00,76.7,58.3,29.84,South,179,8.0,9.0,53,0.00,,FEW045,0.00,VWS V13.01,2013-09-01 22:15:00,
2013-09-01 15:20:00,76.6,58.2,29.84,SSE,153,7.0,11.0,53,0.00,,FEW045,0.00,VWS V13.01,2013-09-01 22:20:00,
2013-09-01 15:26:00,76.6,57.7,29.84,South,175,6.0,11.0,52,0.00,,FEW045,0.00,VWS V13.01,2013-09-01 22:26:00,
2013-09-01 15:31:00,76.6,58.7,29.84,SSE,163,8.0,11.0,54,0.00,,FEW045,0.00,VWS V13.01,2013-09-01 22:31:00,
2013-09-01 15:36:00,76.5,58.1,29.84,SSE,153,4.0,11.0,53,0.00,,FEW045,0.00,VWS V13.01,2013-09-01 22:36:00,
2013-09-01 15:41:00,76.4,57.0,29.84,South,171,5.0,11.0,51,0.00,,FEW050,0.00,VWS V13.01,2013-09-01 22:41:00,
2013-09-01 15:46:00,76.3,56.9,29.84,SSE,155,4.0,10.0,51,0.00,,FEW050,0.00,VWS V13.01,2013-09-01 22:46:00,
2013-09-01 15:51:00,76.6,57.7,29.84,SW,219,2.0,10.0,52,0.00,,FEW050,0.00,VWS V13.01,2013-09-01 22:51:00,
2013-09-01 15:56:00,76.7,58.8,29.85,South,175,2.0,10.0,54,0.00,,FEW050,0.00,VWS V13.01,2013-09-01 22:56:00,
2013-09-01 16:01:00,76.6,59.2,29.85,WSW,250,2.0,4.0,55,0.00,,FEW050,0.00,VWS V13.01,2013-09-01 23:01:00,
2013-09-01 16:06:00,75.9,58.1,29.85,SSE,155,6.0,11.0,54,0.00,,FEW050,0.00,VWS V13.01,2013-09-01 23:06:00,
2013-09-01 16:11:00,75.0,57.2,29.85,SSE,163,6.0,14.0,54,0.00,,FEW050,0.00,VWS V13.01,2013-09-01 23:11:00,
2013-09-01 16:16:00,74.3,57.1,29.85,SE,136,5.0,11.0,55,0.00,,FEW050,0.00,VWS V13.01,2013-09-01 23:16:00,
2013-09-01 16:21:00,74.2,58.0,29.85,SSW,192,2.0,11.0,57,0.00,,FEW050,0.00,VWS V13.01,2013-09-01 23:21:00,
2013-09-01 16:26:00,74.3,57.6,29.85,South,184,3.0,11.0,56,0.00,,FEW050,0.00,VWS V13.01,2013-09-01 23:26:00,
2013-09-01 16:31:00,74.4,57.7,29.85,South,184,2.0,6.0,56,0.00,,FEW050,0.00,VWS V13.01,2013-09-01 23:31:00,
2013-09-01 16:36:00,74.3,57.1,29.85,SE,127,2.0,8.0,55,0.00,,FEW050,0.00,VWS V13.01,2013-09-01 23:36:00,
2013-09-01 16:41:00,74.2,58.0,29.85,SE,130,4.0,8.0,57,0.00,,FEW060,0.00,VWS V13.01,2013-09-01 23:41:00,
2013-09-01 16:46:00,74.0,57.3,29.85,SSE,158,0.0,9.0,56,0.00,,FEW060,0.00,VWS V13.01,2013-09-01 23:46:00,
2013-09-01 16:52:00,73.9,57.2,29.85,SSE,167,0.0,9.0,56,0.00,,FEW060,0.00,VWS V13.01,2013-09-01 23:52:00,
2013-09-01 16:57:00,73.8,57.1,29.85,South,173,2.0,9.0,56,0.00,,FEW060,0.00,VWS V13.01,2013-09-01 23:57:00,
2013-09-01 17:02:00,73.7,57.0,29.85,ENE,72,2.0,7.0,56,0.00,,FEW060,0.00,VWS V13.01,2013-09-02 00:02:00,
2013-09-01 17:07:00,73.7,56.5,29.84,SE,137,0.0,7.0,55,0.00,,FEW060,0.00,VWS V13.01,2013-09-02 00:07:00,
2013-09-01 17:12:00,72.8,57.2,29.84,SSW,198,1.0,7.0,58,0.00,,FEW060,0.00,VWS V13.01,2013-09-02 00:12:00,
2013-09-01 17:17:00,72.3,54.2,29.85,SW,224,0.0,1.0,53,0.00,,FEW060,0.00,VWS V13.01,2013-09-02 00:17:00,
2013-09-01 17:22:00,71.9,55.9,29.85,SW,225,2.0,4.0,57,0.00,,FEW060,0.00,VWS V13.01,2013-09-02 00:22:00,
2013-09-01 17:27:00,72.3,57.2,29.85,South,181,1.0,7.0,59,0.00,,FEW060,0.00,VWS V13.01,2013-09-02 00:27:00,
2013-09-01 17:32:00,72.2,57.1,29.85,SSE,162,2.0,4.0,59,0.00,,FEW060,0.00,VWS V13.01,2013-09-02 00:32:00,
2013-09-01 17:37:00,72.1,56.5,29.85,SSE,167,0.0,6.0,58,0.00,,FEW060,0.00,VWS V13.01,2013-09-02 00:37:00,
2013-09-01 17:42:00,71.7,55.2,29.85,SW,230,1.0,6.0,56,0.00,,FEW060,0.00,VWS V13.01,2013-09-02 00:42:00,
2013-09-01 17:47:00,71.5,55.5,29.85,SSW,202,6.0,6.0,57,0.00,,FEW060,0.00,VWS V13.01,2013-09-02 00:47:00,
2013-09-01 17:52:00,71.5,55.5,29.85,SE,135,3.0,9.0,57,0.00,,FEW060,0.00,VWS V13.01,2013-09-02 00:52:00,
2013-09-01 17:57:00,71.5,55.5,29.85,SSW,200,1.0,9.0,57,0.00,,FEW060,0.00,VWS V13.01,2013-09-02 00:57:00,
2013-09-01 18:02:00,71.1,53.1,29.85,SSW,209,3.0,3.0,53,0.00,,FEW060,0.00,VWS V13.01,2013-09-02 01:02:00,
2013-09-01 18:08:00,70.4,48.1,29.85,SSW,202,0.0,3.0,45,0.00,,FEW060,0.00,VWS V13.01,2013-09-02 01:08:00,
2013-09-01 18:13:00,69.9,54.5,29.85,SE,134,0.0,4.0,58,0.00,,FEW060,0.00,VWS V13.01,2013-09-02 01:13:00,
2013-09-01 18:18:00,69.9,49.3,29.85,WNW,286,0.0,2.0,48,0.00,,FEW060,0.00,VWS V13.01,2013-09-02 01:18:00,
2013-09-01 18:23:00,69.2,51.9,29.85,WNW,286,0.0,2.0,54,0.00,,FEW060,0.00,VWS V13.01,2013-09-02 01:23:00,
2013-09-01 18:28:00,68.5,34.1,29.85,WNW,286,0.0,2.0,28,0.00,,FEW060,0.00,VWS V13.01,2013-09-02 01:28:00,
2013-09-01 18:33:00,67.9,31.8,29.86,WNW,286,0.0,0.0,26,0.00,,FEW060,0.00,VWS V13.01,2013-09-02 01:33:00,
2013-09-01 18:38:00,67.3,14.8,29.85,WNW,286,0.0,0.0,13,0.00,,FEW060,0.00,VWS V13.01,2013-09-02 01:38:00,
2013-09-01 18:43:00,66.7,10.6,29.85,WNW,286,0.0,0.0,11,0.00,,FEW060,0.00,VWS V13.01,2013-09-02 01:43:00,
2013-09-01 18:48:00,66.3,-2.9,29.85,WNW,286,0.0,0.0,6,0.00,,FEW060,0.00,VWS V13.01,2013-09-02 01:48:00,
2013-09-01 18:53:00,65.9,-37.4,29.86,WNW,286,0.0,0.0,1,0.00,,FEW060,0.00,VWS V13.01,2013-09-02 01:53:00,
2013-09-01 18:58:00,65.5,0.0,29.86,WNW,286,0.0,0.0,0,0.00,,FEW060,0.00,VWS V13.01,2013-09-02 01:58:00,
2013-09-01 19:03:00,65.2,0.0,29.86,WNW,286,0.0,2.0,0,0.00,,FEW060,0.00,VWS V13.01,2013-09-02 02:03:00,
2013-09-01 19:08:00,65.0,0.0,29.86,WNW,286,0.0,2.0,0,0.00,,FEW060,0.00,VWS V13.01,2013-09-02 02:08:00,
2013-09-01 19:13:00,64.8,0.0,29.86,WNW,286,0.0,2.0,0,0.00,,FEW060,0.00,VWS V13.01,2013-09-02 02:13:00,
2013-09-01 19:18:00,64.6,0.0,29.87,WNW,286,0.0,0.0,0,0.00,,FEW060,0.00,VWS V13.01,2013-09-02 02:18:00,
2013-09-01 19:23:00,64.4,0.0,29.87,WNW,286,0.0,0.0,0,0.00,,FEW060,0.00,VWS V13.01,2013-09-02 02:23:00,
2013-09-01 19:29:00,64.4,0.0,29.87,WNW,287,0.0,0.0,0,0.00,,FEW060,0.00,VWS V13.01,2013-09-02 02:29:00,
2013-09-01 19:34:00,64.5,0.0,29.87,SW,214,1.0,3.0,0,0.00,,FEW060,0.00,VWS V13.01,2013-09-02 02:34:00,
2013-09-01 19:39:00,64.5,0.0,29.87,SW,214,0.0,3.0,0,0.00,,FEW060,0.00,VWS V13.01,2013-09-02 02:39:00,
2013-09-01 19:44:00,64.6,0.0,29.87,SW,214,0.0,0.0,0,0.00,,FEW050,0.00,VWS V13.01,2013-09-02 02:44:00,
2013-09-01 19:49:00,64.6,0.0,29.87,SW,214,0.0,2.0,0,0.00,,FEW050,0.00,VWS V13.01,2013-09-02 02:49:00,
2013-09-01 19:54:00,64.6,0.0,29.87,SSW,213,0.0,2.0,0,0.00,,FEW050,0.00,VWS V13.01,2013-09-02 02:54:00,
2013-09-01 19:59:00,64.7,0.0,29.86,SSW,213,0.0,0.0,0,0.00,,FEW050,0.00,VWS V13.01,2013-09-02 02:59:00,
2013-09-01 20:04:00,64.7,0.0,29.87,SSW,213,0.0,0.0,0,0.00,,FEW050,0.00,VWS V13.01,2013-09-02 03:04:00,
2013-09-01 20:09:00,64.8,0.0,29.87,SSW,213,0.0,0.0,0,0.00,,FEW050,0.00,VWS V13.01,2013-09-02 03:09:00,
2013-09-01 20:14:00,64.7,0.0,29.87,SSW,213,0.0,1.0,0,0.00,,FEW050,0.00,VWS V13.01,2013-09-02 03:14:00,
2013-09-01 20:19:00,64.8,0.0,29.87,SSW,213,0.0,1.0,0,0.00,,FEW050,0.00,VWS V13.01,2013-09-02 03:19:00,
2013-09-01 20:24:00,64.7,0.0,29.87,WNW,299,0.0,2.0,0,0.00,,FEW050,0.00,VWS V13.01,2013-09-02 03:24:00,
2013-09-01 20:29:00,64.7,0.0,29.87,WNW,299,0.0,0.0,0,0.00,,FEW050,0.00,VWS V13.01,2013-09-02 03:29:00,
2013-09-01 20:34:00,64.8,0.0,29.87,WNW,299,0.0,1.0,0,0.00,,FEW050,0.00,VWS V13.01,2013-09-02 03:34:00,
2013-09-01 20:39:00,64.8,0.0,29.87,WNW,299,0.0,1.0,0,0.00,,FEW050,0.00,VWS V13.01,2013-09-02 03:39:00,
2013-09-01 20:45:00,64.8,0.0,29.88,WNW,299,0.0,0.0,0,0.00,,FEW050,0.00,VWS V13.01,2013-09-02 03:45:00,
2013-09-01 20:50:00,64.8,0.0,29.88,West,278,0.0,2.0,0,0.00,,FEW050,0.00,VWS V13.01,2013-09-02 03:50:00,
2013-09-01 20:55:00,64.9,0.0,29.88,West,278,0.0,2.0,0,0.00,,FEW050,0.00,VWS V13.01,2013-09-02 03:55:00,
2013-09-01 21:00:00,64.9,0.0,29.88,West,278,0.0,0.0,0,0.00,,FEW050,0.00,VWS V13.01,2013-09-02 04:00:00,
2013-09-01 21:01:00,64.9,0.0,29.88,West,278,0.0,0.0,0,0.00,,FEW050,0.00,VWS V13.01,2013-09-02 04:01:00,
2013-09-01 21:02:00,64.9,0.0,29.88,West,278,0.0,0.0,0,0.00,,FEW050,0.00,VWS V13.01,2013-09-02 04:02:00,
2013-09-01 21:04:00,64.9,0.0,29.88,West,278,0.0,0.0,0,0.00,,FEW050,0.00,VWS V13.01,2013-09-02 04:04:00,
2013-09-01 21:05:00,64.9,0.0,29.88,West,278,0.0,0.0,0,0.00,,FEW050,0.00,VWS V13.01,2013-09-02 04:05:00,
2013-09-01 21:10:00,65.0,0.0,29.88,West,278,0.0,0.0,0,0.00,,FEW050,0.00,VWS V13.01,2013-09-02 04:10:00,
2013-09-01 21:15:00,65.0,0.0,29.88,WNW,298,0.0,1.0,0,0.00,,FEW050,0.00,VWS V13.01,2013-09-02 04:15:00,
2013-09-01 21:20:00,64.9,0.0,29.88,WNW,298,0.0,2.0,0,0.00,,FEW050,0.00,VWS V13.01,2013-09-02 04:20:00,
2013-09-01 21:25:00,64.8,0.0,29.88,WNW,298,0.0,2.0,0,0.00,,FEW050,0.00,VWS V13.01,2013-09-02 04:25:00,
2013-09-01 21:30:00,64.8,0.0,29.89,WNW,298,0.0,0.0,0,0.00,,FEW050,0.00,VWS V13.01,2013-09-02 04:30:00,
2013-09-01 21:35:00,64.7,0.0,29.89,WNW,298,0.0,0.0,0,0.00,,FEW050,0.00,VWS V13.01,2013-09-02 04:35:00,
2013-09-01 21:40:00,64.6,0.0,29.89,WNW,298,0.0,0.0,0,0.00,,FEW050,0.00,VWS V13.01,2013-09-02 04:40:00,
2013-09-01 21:45:00,64.5,0.0,29.89,WNW,298,0.0,0.0,0,0.00,,FEW050,0.00,VWS V13.01,2013-09-02 04:45:00,
2013-09-01 21:51:00,64.5,0.0,29.89,WNW,298,0.0,0.0,0,0.00,,FEW050,0.00,VWS V13.01,2013-09-02 04:51:00,
2013-09-01 21:56:00,64.4,0.0,29.89,WNW,298,0.0,0.0,0,0.00,,FEW050,0.00,VWS V13.01,2013-09-02 04:56:00,
2013-09-01 22:01:00,64.3,0.0,29.89,WNW,298,0.0,0.0,0,0.00,,FEW050,0.00,VWS V13.01,2013-09-02 05:01:00,
2013-09-01 22:06:00,64.3,0.0,29.89,WNW,298,0.0,0.0,0,0.00,,FEW050,0.00,VWS V13.01,2013-09-02 05:06:00,
2013-09-01 22:11:00,64.3,0.0,29.89,WNW,298,0.0,0.0,0,0.00,,FEW050,0.00,VWS V13.01,2013-09-02 05:11:00,
2013-09-01 22:16:00,64.3,0.0,29.89,WNW,298,0.0,0.0,0,0.00,,FEW050,0.00,VWS V13.01,2013-09-02 05:16:00,
2013-09-01 22:21:00,64.3,0.0,29.89,WNW,298,0.0,0.0,0,0.00,,FEW050,0.00,VWS V13.01,2013-09-02 05:21:00,
2013-09-01 22:26:00,64.3,0.0,29.89,WNW,298,0.0,0.0,0,0.00,,FEW050,0.00,VWS V13.01,2013-09-02 05:26:00,
2013-09-01 22:31:00,64.3,0.0,29.89,WNW,298,0.0,0.0,0,0.00,,FEW050,0.00,VWS V13.01,2013-09-02 05:31:00,
2013-09-01 22:36:00,64.3,0.0,29.89,WNW,298,0.0,0.0,0,0.00,,FEW050,0.00,VWS V13.01,2013-09-02 05:36:00,
2013-09-01 22:41:00,64.3,0.0,29.89,WNW,298,0.0,0.0,0,0.00,,CLR,0.00,VWS V13.01,2013-09-02 05:41:00,
2013-09-01 22:46:00,64.3,0.0,29.89,WNW,298,0.0,0.0,0,0.00,,CLR,0.00,VWS V13.01,2013-09-02 05:46:00,
2013-09-01 22:51:00,64.3,0.0,29.89,WNW,298,0.0,1.0,0,0.00,,CLR,0.00,VWS V13.01,2013-09-02 05:51:00,
2013-09-01 22:57:00,64.3,0.0,29.89,WNW,298,0.0,1.0,0,0.00,,CLR,0.00,VWS V13.01,2013-09-02 05:57:00,
2013-09-01 23:02:00,64.3,0.0,29.89,WNW,298,0.0,0.0,0,0.00,,CLR,0.00,VWS V13.01,2013-09-02 06:02:00,
2013-09-01 23:07:00,64.3,0.0,29.89,WNW,298,0.0,0.0,0,0.00,,CLR,0.00,VWS V13.01,2013-09-02 06:07:00,
2013-09-01 23:12:00,64.3,0.0,29.89,WNW,298,0.0,1.0,0,0.00,,CLR,0.00,VWS V13.01,2013-09-02 06:12:00,
2013-09-01 23:17:00,64.3,0.0,29.89,WNW,297,0.0,0.0,0,0.00,,CLR,0.00,VWS V13.01,2013-09-02 06:17:00,
2013-09-01 23:22:00,64.2,0.0,29.89,WNW,298,0.0,0.0,0,0.00,,CLR,0.00,VWS V13.01,2013-09-02 06:22:00,
2013-09-01 23:27:00,64.2,0.0,29.89,WNW,298,0.0,0.0,0,0.00,,CLR,0.00,VWS V13.01,2013-09-02 06:27:00,
2013-09-01 23:32:00,64.3,0.0,29.89,WNW,298,0.0,0.0,0,0.00,,CLR,0.00,VWS V13.01,2013-09-02 06:32:00,
2013-09-01 23:37:00,64.3,0.0,29.89,SSW,200,1.0,4.0,0,0.00,,CLR,0.00,VWS V13.01,2013-09-02 06:37:00,
2013-09-01 23:42:00,64.3,0.0,29.89,SSW,202,0.0,4.0,0,0.00,,BKN075,0.00,VWS V13.01,2013-09-02 06:42:00,
2013-09-01 23:47:00,64.3,0.0,29.89,SSW,202,0.0,1.0,0,0.00,,BKN075,0.00,VWS V13.01,2013-09-02 06:47:00,
2013-09-01 23:52:00,64.3,0.0,29.89,SSW,202,0.0,1.0,0,0.00,,BKN075,0.00,VWS V13.01,2013-09-02 06:52:00,
2013-09-01 23:57:00,64.3,0.0,29.89,SSW,202,0.0,1.0,0,0.00,,BKN075,0.00,VWS V13.01,2013-09-02 06:57:00,